Torna al catalogo

SL-14 DEB

AttivoPO
NORAD 26007·DEBRIS·🇷🇺 Russia

Lanciato Sep 28, 1991 da Plesetsk Cosmodrome

Loading…

Prossimi Passaggi (prossime 24 ore)

TLE

AggiornatoSource: Space-Track

Epoca: Sep 14, 2026, 14:54 UTC

1 26007U 91068S   26257.62096392  .00000018  00000-0  49253-4 0  9994
2 26007  82.7012 198.8256 0011293 344.6093 133.3196 12.48359294227094

Traccia SL-14 DEB in tempo reale con AllMySat

Download on the App Store